Content
SEND FEEDBACK

Daily
Averages
Monthly
Summary
United States of America

POINTE A LA HACHE, LOUISIANA


Home > North America > United States > Louisiana
Elevation: 4 feet     Latitude: 29 35N     Longitude: 089 50W

WEATHER
 
SELECT A DAY
Number of Records: 169,032;   Date Range: 1/1/95 - 9/30/14
 
SHARE

PRINT THIS DATA

[ ← Previous Day ]
WEATHER ALMANAC - JANUARY 22, 2013
[ Next Day → ]
[ °C ]   °F
Weather ElementAverageHighLow
Temperature49.9 °F60.1 °F (1:55 pm)43 °F (6:55 am)
Dewpoint39.4 °F43 °F (4:55 pm)36 °F (6:55 am)
Humidity68.5 %86 % (11:55 pm)46 % (1:55 pm)
Barometer30.32 in30.38 in (9:55 am)30.24 in (1:55 am)
Wind Speed4.6 mph9.2 mph (9:55 am)
Weather ElementAverage
Visibility10 mi
Wind DirectionENE (55.5 °)

Weather ElementTotal
Precipitation---
Heating Degree Days13.5 (Base 65)
Growing Degree Days1.6 (Base 50)
Averaged from 22 records on January 22, 2013
WEATHER CONDITIONS BREAKOUT
WIND DIRECTION BREAKOUT
WEATHER BY HOUR - JANUARY 22, 2013
[ °C ]   °F
Local TimeTemperatureDewpointHumidityBarometerVisibilityWind DirectionWind SpeedGust SpeedPrecipitationEventsConditions
1:55 AM51.1 °F42.1 °F71 %30.24 in10.0 miNNE (30°)5.8 mphClear
2:55 AM48.9 °F39.9 °F71 %30.25 in10.0 miNE (40°)4.6 mphClear
3:55 AM46.9 °F39.0 °F74 %30.25 in10.0 miENE (60°)5.8 mphClear
4:55 AM46.9 °F39.9 °F77 %30.27 in10.0 miNNE (20°)3.5 mphClear
5:55 AM45.0 °F39.0 °F80 %30.29 in10.0 miNNE (30°)5.8 mphClear
6:08 AM46.4 °F39.2 °F76 %30.30 in10.0 miNNE (30°)4.6 mphMostly Cloudy
6:55 AM43.0 °F36.0 °F76 %30.31 in10.0 miNE (40°)6.9 mphMostly Cloudy
7:55 AM46.9 °F37.0 °F68 %30.33 in10.0 miNNE (30°)5.8 mphMostly Cloudy
8:55 AM48.9 °F37.0 °F64 %30.36 in10.0 miNE (40°)6.9 mphMostly Cloudy
9:55 AM51.1 °F36.0 °F56 %30.38 in10.0 miENE (70°)9.2 mphMostly Cloudy
11:55 AM55.9 °F37.9 °F51 %30.35 in10.0 miESE (110°)8.1 mphScattered Clouds
1:55 PM60.1 °F39.0 °F46 %30.30 in10.0 miEast (100°)6.9 mphPartly Cloudy
2:55 PM59.0 °F41.0 °F51 %30.30 in10.0 miESE (120°)6.9 mphClear
3:55 PM60.1 °F41.0 °F49 %30.31 in10.0 miEast (90°)6.9 mphClear
4:55 PM57.0 °F43.0 °F59 %30.31 in10.0 miSE (130°)6.9 mphClear
5:55 PM54.0 °F42.1 °F64 %30.32 in10.0 miSE (130°)3.5 mphClear
6:55 PM50.0 °F41.0 °F71 %30.34 in10.0 miSSE (150°)3.5 mphClear
7:55 PM50.0 °F41.0 °F71 %30.34 in10.0 miCalmClear
8:55 PM46.0 °F39.9 °F79 %30.35 in10.0 miCalmClear
9:55 PM44.1 °F39.9 °F85 %30.36 in10.0 miCalmClear
10:55 PM43.0 °F37.9 °F82 %30.37 in10.0 miCalmClear
11:55 PM43.0 °F39.0 °F86 %30.35 inCalmClear
Hourly data recorded from KNBG, located miles away from Pointe A La Hache, Louisiana







STORIES FROM OUR PARTNERS